Location: Unspecified
(0.0000°N, 0.0000°E)
Time: 17:55:56
(UTC+00:00)

Vanguard 1 - Pass Details

Date: 02 October 2020
Orbit: 650 x 3833 km, 34.3° (Epoch: 26 October)

Event Time Altitude Azimuth Distance (km) Brightness Sun altitude
Rises 14:12:53 0° 225° (SW) 7,917 15.1 53.9°
Reaches altitude 10° 14:18:44 10° 220° (SW) 6,942 14.9 52.4°
Maximum altitude 14:40:54 51° 149° (SSE) 3,787 13.4 46.9°
Drops below altitude 10° 14:55:33 10° 77° (ENE) 4,848 13.3 43.3°
Sets 14:58:43 0° 72° (ENE) 5,494 13.5 42.5°
